| time (UTC) | temp F | wind direction | speed MPH | gust MPH | rain 1hr in | rain 24hr in | rain mn in | humidity % | barometer mb |
| 20260507051521 | 56 | 210 | 1.0 | 6.0 | 0.00 | 0.04 | 0.00 | 71 | 1008.8 |
| 20260507050044 | 56 | 307 | 1.0 | 5.0 | 0.00 | 0.04 | 0.00 | 72 | 1008.9 |
| 20260507044603 | 56 | 319 | 1.0 | 3.0 | 0.00 | 0.04 | 0.00 | 72 | 1009.2 |
| 20260507043014 | 57 | 340 | 1.0 | 6.0 | 0.00 | 0.04 | 0.00 | 71 | 1009.1 |
| 20260507041528 | 57 | 299 | 2.0 | 8.0 | 0.00 | 0.04 | 0.00 | 73 | 1009.4 |
| 20260507040310 | 58 | 338 | 0.0 | 6.0 | 0.00 | 0.04 | 0.00 | 75 | 1009.5 |
| 20260507040027 | 58 | 18 | 1.0 | 6.0 | 0.00 | 0.04 | 0.04 | 75 | 1009.4 |
| 20260507034530 | 58 | 11 | 1.0 | 7.0 | 0.00 | 0.04 | 0.04 | 75 | 1009.2 |
| 20260507033034 | 59 | 8 | 2.0 | 7.0 | 0.00 | 0.04 | 0.04 | 79 | 1009.0 |
| 20260507031550 | 59 | 345 | 1.0 | 5.0 | 0.01 | 0.04 | 0.04 | 80 | 1008.7 |
| 20260507030007 | 60 | 22 | 1.0 | 6.0 | 0.01 | 0.04 | 0.04 | 78 | 1008.6 |
| 20260507024528 | 60 | 304 | 2.0 | 9.0 | 0.01 | 0.04 | 0.04 | 77 | 1008.8 |
| 20260507023046 | 62 | 330 | 5.0 | 10.0 | 0.01 | 0.04 | 0.04 | 77 | 1008.8 |
| 20260507021557 | 65 | 313 | 1.0 | 7.0 | 0.00 | 0.03 | 0.03 | 80 | 1008.8 |
| 20260507020316 | 66 | 281 | 0.0 | 6.0 | 0.00 | 0.03 | 0.03 | 79 | 1008.5 |
| 20260507020109 | 65 | 15 | 2.0 | 6.0 | 0.00 | 0.03 | 0.03 | 79 | 1008.4 |
| 20260507014609 | 66 | 20 | 1.0 | 5.0 | 0.00 | 0.03 | 0.03 | 74 | 1008.2 |
| 20260507013019 | 66 | 165 | 1.0 | 7.0 | 0.00 | 0.03 | 0.03 | 74 | 1008.0 |
| 20260507011530 | 67 | 189 | 1.0 | 3.0 | 0.00 | 0.03 | 0.03 | 74 | 1007.9 |
| 20260507010049 | 67 | 110 | 1.0 | 5.0 | 0.00 | 0.03 | 0.03 | 74 | 1007.7 |
| 20260507004551 | 67 | 150 | 0.0 | 4.0 | 0.00 | 0.03 | 0.03 | 74 | 1007.8 |
| 20260507003009 | 66 | 136 | 0.0 | 4.0 | 0.00 | 0.03 | 0.03 | 74 | 1007.8 |
| 20260507001525 | 66 | 155 | 1.0 | 3.0 | 0.00 | 0.03 | 0.03 | 74 | 1007.7 |
| 20260507000308 | 67 | 191 | 1.0 | 5.0 | 0.00 | 0.03 | 0.03 | 74 | 1007.9 |
| 20260507000028 | 66 | 224 | 1.0 | 5.0 | 0.00 | 0.03 | 0.03 | 74 | 1007.8 |
| 20260506234543 | 66 | 146 | 1.0 | 6.0 | 0.00 | 0.03 | 0.03 | 74 | 1007.6 |
| 20260506233059 | 66 | 231 | 0.0 | 4.0 | 0.00 | 0.03 | 0.03 | 74 | 1007.5 |
| 20260506231529 | 67 | 98 | 0.0 | 5.0 | 0.00 | 0.03 | 0.03 | 74 | 1007.3 |
| 20260506230039 | 66 | 201 | 1.0 | 4.0 | 0.00 | 0.03 | 0.03 | 74 | 1007.5 |
| 20260506224540 | 66 | 210 | 2.0 | 11.0 | 0.00 | 0.03 | 0.03 | 74 | 1007.5 |
| 20260506223059 | 66 | 244 | 2.0 | 6.0 | 0.00 | 0.03 | 0.03 | 74 | 1007.3 |
| 20260506221518 | 66 | 214 | 2.0 | 8.0 | 0.00 | 0.03 | 0.03 | 74 | 1007.2 |
| 20260506220309 | 67 | 191 | 2.0 | 6.0 | 0.00 | 0.03 | 0.03 | 74 | 1007.3 |
| 20260506220027 | 66 | 243 | 1.0 | 5.0 | 0.00 | 0.03 | 0.03 | 74 | 1007.2 |
| 20260506214537 | 66 | 220 | 3.0 | 8.0 | 0.00 | 0.03 | 0.03 | 74 | 1007.1 |
| 20260506213102 | 66 | 252 | 4.0 | 9.0 | 0.00 | 0.03 | 0.03 | 74 | 1007.0 |
| 20260506211557 | 66 | 145 | 1.0 | 8.0 | 0.00 | 0.03 | 0.03 | 75 | 1006.9 |
| 20260506204519 | 66 | 160 | 2.0 | 8.0 | 0.00 | 0.03 | 0.03 | 77 | 1006.6 |
| 20260506203032 | 65 | 237 | 2.0 | 9.0 | 0.00 | 0.03 | 0.03 | 77 | 1006.6 |
| 20260506201600 | 64 | 134 | 2.0 | 10.0 | 0.00 | 0.03 | 0.03 | 78 | 1006.8 |
| 20260506200311 | 65 | 221 | 5.0 | 13.0 | 0.00 | 0.03 | 0.03 | 79 | 1007.1 |
| 20260506194516 | 64 | 203 | 0.0 | 4.0 | 0.00 | 0.03 | 0.03 | 81 | 1007.2 |
| 20260506193017 | 64 | 234 | 0.0 | 5.0 | 0.00 | 0.03 | 0.03 | 82 | 1007.3 |
| 20260506191544 | 64 | 184 | 2.0 | 6.0 | 0.00 | 0.03 | 0.03 | 80 | 1007.6 |
| 20260506190055 | 64 | 212 | 2.0 | 11.0 | 0.00 | 0.03 | 0.03 | 80 | 1007.5 |
| 20260506184609 | 65 | 173 | 3.0 | 13.0 | 0.00 | 0.03 | 0.03 | 75 | 1007.7 |
| 20260506183005 | 67 | 253 | 10.0 | 17.0 | 0.00 | 0.03 | 0.03 | 68 | 1007.5 |
| 20260506181512 | 67 | 153 | 2.0 | 7.0 | 0.00 | 0.03 | 0.03 | 72 | 1007.6 |
| 20260506180318 | 67 | 225 | 3.0 | 10.0 | 0.01 | 0.03 | 0.03 | 72 | 1008.0 |
| 20260506180021 | 67 | 191 | 1.0 | 7.0 | 0.01 | 0.03 | 0.03 | 73 | 1007.8 |
| 20260506174544 | 67 | 111 | 2.0 | 6.0 | 0.02 | 0.03 | 0.03 | 73 | 1007.6 |
| 20260506173108 | 66 | 208 | 2.0 | 8.0 | 0.02 | 0.03 | 0.03 | 75 | 1007.7 |
| 20260506171525 | 65 | 165 | 0.0 | 6.0 | 0.03 | 0.03 | 0.03 | 77 | 1007.9 |
| 20260506170034 | 65 | 207 | 1.0 | 7.0 | 0.02 | 0.02 | 0.02 | 76 | 1008.7 |
| 20260506164539 | 65 | 133 | 1.0 | 11.0 | 0.01 | 0.01 | 0.01 | 75 | 1009.0 |
| 20260506163110 | 66 | 207 | 3.0 | 12.0 | 0.01 | 0.01 | 0.01 | 73 | 1009.0 |
| 20260506161503 | 68 | 200 | 2.0 | 11.0 | 0.00 | 0.00 | 0.00 | 68 | 1009.1 |
| 20260506160312 | 70 | 217 | 5.0 | 14.0 | 0.00 | 0.00 | 0.00 | 62 | 1009.4 |
| 20260506160100 | 70 | 243 | 3.0 | 14.0 | 0.00 | 0.00 | 0.00 | 62 | 1009.3 |
| 20260506154521 | 71 | 221 | 7.0 | 19.0 | 0.00 | 0.00 | 0.00 | 59 | 1009.5 |
| 20260506153030 | 70 | 175 | 3.0 | 14.0 | 0.00 | 0.00 | 0.00 | 61 | 1009.2 |
| 20260506151543 | 70 | 231 | 4.0 | 13.0 | 0.00 | 0.00 | 0.00 | 61 | 1009.4 |
| 20260506150043 | 71 | 179 | 6.0 | 18.0 | 0.00 | 0.00 | 0.00 | 60 | 1009.4 |
| 20260506144603 | 72 | 210 | 4.0 | 16.0 | 0.00 | 0.00 | 0.00 | 60 | 1009.5 |
| 20260506143025 | 71 | 258 | 4.0 | 11.0 | 0.00 | 0.00 | 0.00 | 61 | 1009.4 |
| 20260506141519 | 70 | 241 | 4.0 | 14.0 | 0.00 | 0.00 | 0.00 | 62 | 1009.3 |
| 20260506140310 | 71 | 181 | 6.0 | 14.0 | 0.00 | 0.00 | 0.00 | 61 | 1009.5 |
| 20260506140023 | 70 | 316 | 4.0 | 14.0 | 0.00 | 0.00 | 0.00 | 62 | 1009.4 |
| 20260506134540 | 70 | 204 | 5.0 | 13.0 | 0.00 | 0.00 | 0.00 | 63 | 1009.4 |
| 20260506133051 | 69 | 235 | 5.0 | 15.0 | 0.00 | 0.00 | 0.00 | 64 | 1009.6 |
| 20260506131511 | 69 | 165 | 7.0 | 15.0 | 0.00 | 0.00 | 0.00 | 64 | 1009.7 |
| 20260506130012 | 69 | 1 | 2.0 | 11.0 | 0.00 | 0.00 | 0.00 | 65 | 1009.5 |
| 20260506124526 | 68 | 221 | 4.0 | 12.0 | 0.00 | 0.00 | 0.00 | 66 | 1009.5 |
| 20260506123045 | 66 | 161 | 2.0 | 9.0 | 0.00 | 0.00 | 0.00 | 68 | 1009.6 |
| 20260506121559 | 66 | 125 | 3.0 | 10.0 | 0.00 | 0.00 | 0.00 | 68 | 1009.7 |
| 20260506120323 | 67 | 91 | 3.0 | 8.0 | 0.00 | 0.00 | 0.00 | 68 | 1009.8 |
| 20260506120044 | 67 | 110 | 4.0 | 8.0 | 0.00 | 0.00 | 0.00 | 68 | 1009.8 |
| 20260506114552 | 66 | 211 | 4.0 | 12.0 | 0.00 | 0.00 | 0.00 | 69 | 1009.8 |
| 20260506113057 | 65 | 111 | 5.0 | 10.0 | 0.00 | 0.00 | 0.00 | 71 | 1010.0 |
| 20260506111517 | 64 | 90 | 2.0 | 8.0 | 0.00 | 0.00 | 0.00 | 72 | 1010.0 |
| 20260506110028 | 64 | 185 | 2.0 | 9.0 | 0.00 | 0.00 | 0.00 | 73 | 1009.8 |
| 20260506104559 | 63 | 156 | 3.0 | 12.0 | 0.00 | 0.00 | 0.00 | 73 | 1009.7 |
| 20260506103010 | 63 | 155 | 3.0 | 13.0 | 0.00 | 0.00 | 0.00 | 74 | 1009.7 |
| 20260506101515 | 63 | 105 | 2.0 | 9.0 | 0.00 | 0.00 | 0.00 | 74 | 1009.6 |
| 20260506100300 | 63 | 191 | 3.0 | 8.0 | 0.00 | 0.00 | 0.00 | 75 | 1009.6 |
| 20260506100015 | 63 | 165 | 2.0 | 8.0 | 0.00 | 0.00 | 0.00 | 75 | 1009.6 |
| 20260506094527 | 63 | 232 | 3.0 | 11.0 | 0.00 | 0.00 | 0.00 | 74 | 1009.4 |
| 20260506093042 | 63 | 155 | 5.0 | 11.0 | 0.00 | 0.00 | 0.00 | 74 | 1009.5 |
| 20260506091548 | 63 | 167 | 3.0 | 9.0 | 0.00 | 0.00 | 0.00 | 74 | 1009.5 |
| 20260506090056 | 63 | 134 | 2.0 | 9.0 | 0.00 | 0.00 | 0.00 | 74 | 1009.6 |
| 20260506084511 | 63 | 193 | 2.0 | 10.0 | 0.00 | 0.00 | 0.00 | 74 | 1009.7 |
| 20260506083025 | 64 | 243 | 3.0 | 11.0 | 0.00 | 0.00 | 0.00 | 74 | 1009.7 |
| 20260506081524 | 64 | 209 | 3.0 | 8.0 | 0.00 | 0.00 | 0.00 | 74 | 1010.0 |
| 20260506080309 | 64 | 195 | 2.0 | 9.0 | 0.00 | 0.00 | 0.00 | 74 | 1009.9 |
| 20260506073058 | 64 | 172 | 3.0 | 9.0 | 0.00 | 0.00 | 0.00 | 73 | 1009.9 |
| 20260506071511 | 65 | 100 | 2.0 | 10.0 | 0.00 | 0.00 | 0.00 | 72 | 1010.0 |
| 20260506061545 | 66 | 203 | 2.0 | 8.0 | 0.00 | 0.00 | 0.00 | 69 | 1009.9 |
| 20260506060318 | 67 | 216 | 3.0 | 13.0 | 0.00 | 0.00 | 0.00 | 68 | 1010.0 |